Regional Weather Roundup
Issued by NWS

Home | Current Version | Previous Version | Text Only | Print | Product List | Glossary Off
Versions: 1 2 3 4 5 6 7 8 9 10 11 12 13 14 15 16 17 18 19 20 21 22 23 24 25 26 27 28 29 30 31 32 33 34 35 36 37 38 39 40 41 42 43 44 45 46 47 48 49 50

543
ASUS43 KDTX 251801
RWRMI
MICHIGAN HOURLY REGIONAL WEATHER ROUNDUP
NATIONAL WEATHER SERVICE DETROIT/PONTIAC MI
200 PM EDT MON SEP 25 2017

NOTE: "FAIR" INDICATES FEW OR NO CLOUDS BELOW 12,000 FEET WITH NO
SIGNIFICANT WEATHER AND/OR OBSTRUCTION TO VISIBILITY.

MIZ047>049-052>055-059>063-066>070-074>076-081>083-251900-
SOUTHEAST LOWER MICHIGAN

CITY           SKY/WX    TMP DP  RH WIND       PRES   REMARKS
ADRIAN         SUNNY     89  58  34 VRB7      30.04F
6HR MIN TEMP:  63; 6HR MAX TEMP:  90;

ALMA           PTSUNNY   89  48  24 SW3       30.03F
ANN ARBOR      PTSUNNY   87  62  43 CALM      30.03F
BAD AXE        MOSUNNY   86  66  51 SE3       30.05F
6HR MIN TEMP:  62; 6HR MAX TEMP:  87;

CARO           CLOUDY    88  61  39 CALM      30.03F
DETROIT CITY   SUNNY     88  66  48 VRB3      30.03F HX  90
6HR MIN TEMP:  67; 6HR MAX TEMP:  89;

DETROIT        PTSUNNY   89  65  44 S7        30.04F HX  91
6HR MIN TEMP:  69; 6HR MAX TEMP:  90;

FLINT          MOSUNNY   89  59  36 SW6       30.04F
6HR MIN TEMP:  63; 6HR MAX TEMP:  90;

GROSSE ILE     SUNNY     81  70  70 S5        30.03F
6HR MIN TEMP:  67; 6HR MAX TEMP:  81;

HILLSDALE      MOSUNNY   88  55  33 S6        30.05F
HOWELL         PTSUNNY   89  58  35 SW6       30.05F
6HR MIN TEMP:  64; 6HR MAX TEMP:  89;


CITY           SKY/WX    TMP DP  RH WIND       PRES   REMARKS
JACKSON        MOSUNNY   88  57  34 S7        30.04F
6HR MIN TEMP:  64; 6HR MAX TEMP:  88;

LAMBERTVILLE   SUNNY     89  61  38 CALM      30.03F
6HR MIN TEMP:  65; 6HR MAX TEMP:  90;

LANSING        MOSUNNY   89  55  31 VRB5      30.04F
6HR MIN TEMP:  65; 6HR MAX TEMP:  90;

LAPEER         FAIR      89  58  34 S6        30.05F
6HR MIN TEMP:  60; 6HR MAX TEMP:  89;

MASON          PTSUNNY   88  57  34 CALM      30.05F
MONROE         SUNNY     88  63  42 S5        30.03F
6HR MIN TEMP:  64; 6HR MAX TEMP:  89;

PONTIAC        PTSUNNY   88  61  40 SE7       30.04F
6HR MIN TEMP:  65; 6HR MAX TEMP:  89;

PORT HOPE        N/A     75  68  78 SE10      30.05F
6HR MIN TEMP:  64; 6HR MAX TEMP:  75;

PORT HURON     SUNNY     90  66  45 E5        30.04F HX  92
TRI CITIES     PTSUNNY   89  62  40 CALM      30.03F
6HR MIN TEMP:  64; 6HR MAX TEMP:  90;

MIDLAND        FAIR      87  60  40 SE5       30.03F
6HR MIN TEMP:  59; 6HR MAX TEMP:  89;

TROY           SUNNY     88  61  40 SE5       30.05F
SAGINAW HB     MOSUNNY   88  63  42 CALM      30.03F
$$
MIZ043>046-050>051-056>058-064>065-071>073-077>080-251900-
SOUTHWEST LOWER MICHIGAN

CITY           SKY/WX    TMP DP  RH WIND       PRES   REMARKS
BATTLE CREEK   CLOUDY    88  54  31 VRB3      30.05F
6HR MIN TEMP:  64; 6HR MAX TEMP:  89; 6HR PCP: TRACE;

BENTON HARBOR  PTSUNNY   87  60  40 CALM      30.02F
6HR MIN TEMP:  63; 6HR MAX TEMP:  87;

BIG RAPIDS     SUNNY     88  45  22 S7G17     30.03F
6HR MIN TEMP:  56; 6HR MAX TEMP:  88;

COLDWATER      SUNNY     87  52  29 S5        30.04F
6HR MIN TEMP:  62; 6HR MAX TEMP:  88;

FREMONT        FAIR      88  57  34 SW9       30.01F
HOLLAND        MOSUNNY   89  57  33 CALM      30.02F
6HR MIN TEMP:  63; 6HR MAX TEMP:  89;

GRAND RAPIDS   PTSUNNY   90  54  29 VRB6      30.03F
6HR MIN TEMP:  64; 6HR MAX TEMP:  90;

IONIA          FAIR      89  51  28 CALM      30.02F
6HR MIN TEMP:  62; 6HR MAX TEMP:  89;

KALAMAZOO      PTSUNNY   87  52  29 CALM      30.04F
6HR MIN TEMP:  63; 6HR MAX TEMP:  87;

LUDINGTON      SUNNY     84  61  46 W5        30.00F
6HR MIN TEMP:  60; 6HR MAX TEMP:  85;

MARSHALL       SUNNY     88  58  35 CALM      30.04F
6HR MIN TEMP:  60; 6HR MAX TEMP:  89;

MOUNT PLEASANT MOSUNNY   91  51  25 S3        30.02F
6HR MIN TEMP:  61; 6HR MAX TEMP:  91;

MUSKEGON       MOSUNNY   88  57  34 SW7       30.02F
6HR MIN TEMP:  64; 6HR MAX TEMP:  89;

SOUTH HAVEN    PTSUNNY   87  54  33 CALM      30.02F
$$
MIZ016>042-251900-
NORTHERN LOWER MICHIGAN

CITY           SKY/WX    TMP DP  RH WIND       PRES   REMARKS
ALPENA         MOSUNNY   87  64  46 SW3       30.03F
6HR MIN TEMP:  65; 6HR MAX TEMP:  88;

BELLAIRE       CLOUDY    87  55  34 CALM      30.00F
6HR MIN TEMP:  57; 6HR MAX TEMP:  87;

CADILLAC       SUNNY     90  44  20 S3        30.04F
CHARLEVOIX     MOSUNNY   86  58  37 SW5       30.03F
6HR MIN TEMP:  67; 6HR MAX TEMP:  87;

FRANKFORT      SUNNY     84  60  42 W6        30.00F
GAYLORD        SUNNY     86  49  27 SW9       30.05F
6HR MIN TEMP:  62; 6HR MAX TEMP:  87;

GRAYLING       SUNNY     88  51  27 SW8       30.05F
6HR MIN TEMP:  53; 6HR MAX TEMP:  88;

HARBOR SPRINGS MOSUNNY   85  58  39 CALM      30.01S
HOUGHTON LAKE  SUNNY     88  55  32 VRB6      30.05F
6HR MIN TEMP:  59; 6HR MAX TEMP:  88;

MANISTEE       SUNNY     89  60  37 SW8       29.99F
OSCODA         MOSUNNY   83  68  60 SE6       30.04F
6HR MIN TEMP:  63; 6HR MAX TEMP:  85;

PELLSTON       MOSUNNY   87  57  35 SW9       30.01F
6HR MIN TEMP:  65; 6HR MAX TEMP:  89;

ROGERS CITY    MOSUNNY   87  59  37 SW5       30.02F
TRAVERSE CITY  PTSUNNY   90  54  29 SW5       29.98F
6HR MIN TEMP:  67; 6HR MAX TEMP:  91;

$$
MIZ007>008-015-251900-
EASTERN UPPER MICHIGAN

CITY           SKY/WX    TMP DP  RH WIND       PRES   REMARKS
KINROSS        SUNNY     86  64  47 S9        30.00F
6HR MIN TEMP:  69; 6HR MAX TEMP:  86;

MACKINAC ISLAN MOSUNNY   81  57  43 W7        30.01F
6HR MIN TEMP:  71; 6HR MAX TEMP:  81;

NEWBERRY       SUNNY     81  66  59 S8        29.99S
6HR MIN TEMP:  66; 6HR MAX TEMP:  82;

S. S. MARIE    SUNNY     86  64  47 S9        29.98F
6HR MIN TEMP:  65; 6HR MAX TEMP:  86;

MUNISING         N/A     73  68  84 NE5       29.97S
6HR MIN TEMP:  68; 6HR MAX TEMP:  83;

$$
MIZ004>006-011>014-085-251900-
CENTRAL UPPER MICHIGAN

CITY           SKY/WX    TMP DP  RH WIND       PRES   REMARKS
MANISTIQUE     SUNNY     73  67  81 S12       29.99F
6HR MIN TEMP:  63; 6HR MAX TEMP:  74;

MENOMINEE      SUNNY     82  67  60 S6        29.97F
6HR MIN TEMP:  61; 6HR MAX TEMP:  83;

SAWYER-GWINN   MOSUNNY   79  64  61 W6        29.99F
$$
MIZ001>003-009>011-084-251900-
WESTERN UPPER MICHIGAN

CITY           SKY/WX    TMP DP  RH WIND       PRES   REMARKS
IRON MOUNTAIN  MOSUNNY   85  64  49 S6        29.96F
6HR MIN TEMP:  62; 6HR MAX TEMP:  85;

HOUGHTON       CLOUDY    70  61  73 W12       29.98S
6HR MIN TEMP:  69; 6HR MAX TEMP:  72;

COPPER HARBOR    N/A     66  61  84 N16       29.97R
6HR MIN TEMP:  65; 6HR MAX TEMP:  74;

IRONWOOD       CLOUDY    65  61  87 NW8       30.00S
6HR MIN TEMP:  65; 6HR MAX TEMP:  69;

$$

ABBREVIATIONS USED IN REMARKS
   TC - TEMPERATURE IN CELSIUS
  WCI - WIND CHILL INDEX
   HX - HEAT INDEX
  VSB - VISIBILITY





USA.gov is the U.S. government's official web portal to all federal, state and local government web resources and services.